#timestamp,LO_Frequency,Hit,StdDev 
1518598815.0,286046990.9,N
1518598815.9,286046990.9,N
1518598835.8,286046988.6,N
1518598855.6,286046991.2,N
1518598875.5,286046991.4,N
1518598895.3,286046989.9,N
1518598915.1,286046990.0,N
1518598935.9,286046986.7,N
1518598955.7,286046986.3,Y
1518598975.5,286046992.3,P
1518598995.4,286046991.8,P
1518599015.2,286046992.5,P
1518599035.1,286046993.1,Y
1518599036.0,286046993.1,P
1518599055.8,286046999.5,N
1518599075.6,286046997.7,N
1518599095.5,286046996.1,N
1518599115.3,286046997.5,N
1518599135.2,286046995.2,N
1518599155.9,286046995.7,N
1518599175.7,286046996.1,N
1518599195.6,286046997.8,N
1518599215.4,286046993.7,N
1518599235.3,286046991.7,Y
1518599255.1,286046999.2,P
1518599256.0,286046999.2,N
1518599275.8,286046999.3,N
1518599295.7,286046999.4,N
1518599315.5,286046999.4,N
1518599335.3,286046997.5,N
1518599355.2,286046997.0,N
1518599375.0,286046997.4,N
1518599375.9,286046997.4,N
1518599395.8,286046995.3,Y
1518599415.6,286046995.3,P
1518599435.4,286046996.3,N
1518599455.3,286046994.1,P
1518599475.1,286046993.7,Y
1518599495.9,286046996.5,P
1518599515.7,286046996.8,P
1518599535.5,286046997.7,P
1518599555.4,286046997.9,Y
1518599575.2,286046999.7,P
1518599595.1,286046998.7,N
1518599596.0,286046998.7,N
1518599615.8,286046999.5,N
1518599635.6,286046997.0,N
1518599655.5,286046999.4,N
1518599675.3,286046995.6,Y
1518599695.2,286046998.0,P
1518599715.9,286046996.1,P
1518599735.7,286046993.4,P
1518599755.6,286046994.2,N
1518599775.4,286046994.8,N
1518599795.2,286046994.8,N
1518599815.1,286046994.7,N
1518599816.0,286046994.7,Y
1518599835.8,286046997.5,P
1518599855.7,286046995.9,P
1518599875.5,286046993.7,P
1518599895.3,286046995.6,Y
1518599915.2,286047002.2,P
1518599935.0,286047002.6,N
1518599935.9,286047002.6,N
1518599955.8,286047000.9,N
1518599975.6,286046999.4,N
1518599995.4,286046998.8,N
1518600015.3,286046998.1,N
1518600035.1,286046999.4,N
1518600055.9,286046997.3,N
1518600075.7,286046995.3,N
1518600095.5,286046993.5,N
1518600115.4,286046994.0,N
1518600135.2,286046994.3,N
1518600155.0,286046994.8,N
1518600155.9,286046994.8,N
1518600175.8,286046992.5,N
1518600195.6,286046992.1,N
1518600215.5,286046992.4,N
1518600235.3,286046990.7,N
1518600255.1,286046990.1,N
1518600275.9,286046991.3,N
1518600295.7,286046988.8,N
1518600315.6,286046988.6,N
1518600335.4,286046988.5,N
1518600355.2,286046987.2,N
1518600375.1,286046988.1,N
1518600376.0,286046988.1,N
1518600395.8,286046987.5,N
1518600415.6,286046989.9,N
1518600435.5,286046987.7,N
1518600455.3,286046985.7,N
1518600475.2,286046987.6,N
1518600495.9,286046987.6,N
1518600515.7,286046986.4,Y
1518600535.6,286046991.7,P
1518600555.4,286046992.9,P
1518600575.3,286046990.5,P
1518600595.1,286046990.9,Y
1518600615.8,286046998.9,P
1518600635.7,286046996.8,N
1518600655.5,286046995.7,N
1518600675.4,286046995.1,N
1518600695.2,286046996.1,N
1518600715.0,286046996.2,N
1518600715.9,286046996.2,N
1518600735.8,286046995.0,N
1518600755.6,286046993.6,Y
1518600775.4,286046999.2,P
1518600795.3,286046995.6,N
1518600815.1,286046995.6,N
1518600835.9,286046993.4,Y
1518600855.7,286046997.1,P
1518600875.5,286046996.9,P
1518600895.4,286046996.9,P
1518600915.2,286046997.7,Y
1518600935.1,286046998.1,P
1518600936.0,286046998.1,P
1518600955.8,286046999.3,N
1518600975.6,286046996.5,Y
1518600995.5,286047001.0,P
1518601015.3,286047000.4,N
1518601035.2,286046998.1,N
1518601055.9,286046999.0,N
1518601075.7,286046996.5,N
1518601095.6,286046997.7,N
1518601115.4,286046999.4,N
1518601135.2,286046997.9,N
1518601155.1,286046997.1,N
1518601156.0,286046997.1,N
1518601175.8,286046996.9,N
1518601195.7,286046997.1,N
1518601215.5,286046997.2,N
1518601235.3,286046995.5,Y
1518601255.2,286046997.2,P
1518601275.0,286046996.7,P
1518601275.9,286046996.7,P
1518601295.8,286046996.7,Y
1518601315.6,286046998.3,P
1518601335.4,286046999.1,N
1518601355.3,286046997.2,P
1518601375.1,286046995.0,Y
1518601395.9,286046999.1,P
1518601415.7,286046998.0,P
1518601435.5,286046995.1,P
1518601455.4,286046996.0,N
1518601475.2,286046996.3,N
1518601495.1,286046995.5,Y
1518601496.0,286046995.5,P
1518601515.8,286046998.8,N
1518601535.6,286046998.3,N
1518601555.5,286047002.8,N
1518601575.3,286046998.9,N
1518601595.1,286046997.3,N
1518601615.9,286046998.2,N
1518601635.7,286047001.9,N
1518601655.6,286047000.0,N
1518601675.4,286047000.7,N
1518601695.2,286046997.0,N
1518601715.1,286046997.7,N
1518601716.0,286046997.7,N
1518601735.8,286046994.1,Y
1518601755.7,286046994.1,P
1518601775.5,286046994.6,N
1518601795.3,286046990.4,P
1518601815.2,286046991.4,N
1518601835.0,286046989.4,Y
1518601835.9,286046989.4,P
1518601855.8,286046993.4,N
1518601875.6,286046993.8,P
1518601895.4,286046993.7,Y
1518601915.3,286047004.2,P
1518601935.1,286047002.2,N
1518601955.8,286047002.6,N
1518601975.7,286047000.1,N
1518601995.5,286046998.7,N
1518602015.4,286046998.6,N
1518602035.2,286046998.3,N
1518602055.0,286046999.4,N
1518602055.9,286046999.4,N
1518602075.8,286046995.0,N
1518602095.6,286046995.2,N
1518602115.5,286046993.7,N
1518602135.3,286046994.6,N
1518602155.1,286046994.6,N
1518602175.9,286046993.2,N
1518602195.7,286046990.4,N
1518602215.5,286046989.3,N
1518602235.4,286046991.3,N
1518602255.2,286046987.0,Y
1518602275.1,286046990.3,P
1518602276.0,286046990.3,P
1518602295.8,286046990.8,P
1518602315.6,286046989.7,Y
1518602335.5,286046998.3,P
1518602355.3,286047000.9,N
1518602375.2,286047002.8,N
1518602395.9,286047002.5,N
